Regional Weather Roundup
Issued by NWS Upton, NY

Current Version | Previous Version | Text Only | Print | Product List | Glossary Off
Versions: 1 2 3 4 5 6 7 8 9 10 11 12 13 14 15 16 17 18 19 20 21 22 23 24 25 26 27 28 29 30 31 32 33 34 35 36 37 38 39 40 41 42 43 44 45 46 47 48 49 50
000 ASUS41 KOKX 081104 RWROKX REGIONAL WEATHER ROUNDUP NATIONAL WEATHER SERVICE NEW YORK NY 600 AM EST MON FEB 08 2016 NOTE: "FAIR" INDICATES FEW OR NO CLOUDS BELOW 12,000 FEET WITH NO SIGNIFICANT WEATHER AND/OR OBSTRUCTIONS TO VISIBILITY. NYZ071-072-176-178-NJZ106-104-081200- NEW YORK CITY METRO AREA CITY SKY/WX TMP DP RH WIND PRES REMARKS CENTRAL PARK CLOUDY 38 26 62 NE12G20 29.78R WCI 30 LAGUARDIA APRT CLOUDY 39 28 64 NE20G30 29.76R WCI 29 KENNEDY INTL CLOUDY 38 28 67 NE18G24 29.76R WCI 28 NEWARK/LIBERTY CLOUDY 38 28 67 NE16G25 29.77R WCI 29 BRNX BOT. GARD N/A 37 27 65 NE13 29.76R WCI 29 TETERBORO CLOUDY 38 25 59 NE9 29.76R WCI 31 $$ NYZ177-179-078>081-081200- LONG ISLAND NEW YORK CITY SKY/WX TMP DP RH WIND PRES REMARKS FARMINGDALE CLOUDY 38 29 70 NE14G22 29.75R WCI 30 ISLIP LGT SNOW 37 28 70 NE18G31 29.72R WCI 27 SHIRLEY FLURRIES 37 28 70 NE8G24 29.75R WCI 31 RIVERHEAD N/A 37 27 65 E13 29.72R WCI 29 WESTHAMPTON LGT SNOW 35 29 78 NE21G30 29.75R WCI 24 EAST HAMPTON LGT SNOW 33 31 93 NE18G28 29.73R WCI 22 MONTAUK POINT N/A 34 31 88 NE17G31 29.73S WCI 23 $$ NYZ052-065-067-081200- HUDSON VALLEY CITY SKY/WX TMP DP RH WIND PRES REMARKS WHITE PLAINS CLOUDY 36 26 67 NE12 29.75R WCI 28 NEWBURGH CLOUDY 34 27 75 NE12 29.78R WCI 25 MONTGOMERY CLOUDY 34 25 69 NE12 29.77S WCI 25 POUGHKEEPSIE CLOUDY 36 25 64 N9 29.79R WCI 29 ALBANY CLOUDY 26 19 74 N5 29.86F WCI 20 $$ NJZ001-105-106-008-010-013-015-019>022-104-081200- NEW JERSEY CITY SKY/WX TMP DP RH WIND PRES REMARKS NEWARK/LIBERTY CLOUDY 38 28 67 NE16G25 29.77R WCI 29 TETERBORO CLOUDY 38 25 59 NE9 29.76R WCI 31 CALDWELL CLOUDY 37 26 64 E8 29.77R WCI 31 MORRISTOWN CLOUDY 36 25 64 NE8 29.77R WCI 29 SOMERVILLE CLOUDY 37 26 64 VRB5 29.75R WCI 33 SUSSEX CLOUDY 34 24 67 NE8 29.76S WCI 27 ANDOVER N/A 32 24 72 VRB3 29.77R TRENTON CLOUDY 36 26 67 NE10 29.75R WCI 28 MILLVILLE CLOUDY 38 26 62 NE12G22 29.71S WCI 30 ATLANTIC CITY CLOUDY 39 30 70 N16G25 29.69R WCI 30 WRIGHTSTOWN CLOUDY 37 36 94 NE17G24 29.71R WCI 27 TOMS RIVER CLOUDY 37 28 70 N15G25 29.72R WCI 28 BELMAR CLOUDY 37 25 60 NE15G22 29.72S WCI 28 $$ PAZ047>061-062-071-081200- EASTERN PENNSYLVANIA CITY SKY/WX TMP DP RH WIND PRES REMARKS PHILADELPHIA CLOUDY 38 24 57 NE13 29.76R WCI 30 ALLENTOWN CLOUDY 34 23 64 NE8 29.77R WCI 27 SCRANTON MOCLDY 33 22 63 NE7 29.76R WCI 27 $$ CTZ002-004>006-009-010-012-RIZ004-006-007-MAZ004-011-015-081200- SOUTHERN NEW ENGLAND IN CT CITY SKY/WX TMP DP RH WIND PRES REMARKS BRADLEY INTL CLOUDY 32 23 69 NE20G26 29.82R WCI 20 HARTFORD CLOUDY 35 25 66 NE18G28 29.81R WCI 24 DANBURY CLOUDY 35 24 64 NE13G22 29.77R WCI 26 WTRBRY/OXFORD CLOUDY 34 19 55 NE14G23 29.76R WCI 24 BRIDGEPORT CLOUDY 38 28 67 NE15G24 29.77R WCI 29 MERIDEN CLOUDY 36 24 62 NE10G32 29.79R WCI 28 NEW HAVEN CLOUDY 37 26 64 NE21G31 29.76R WCI 26 CHESTER CLOUDY 36 28 75 NE13G24 29.75R WCI 27 GROTON MIX PCPN 35 28 75 NE32G44 29.74S WCI 21 WILLIMANTIC CLOUDY 34 23 64 NE24G32 29.80R WCI 21 IN RI CITY SKY/WX TMP DP RH WIND PRES REMARKS PROVIDENCE FLURRIES 34 24 67 NE25G41 29.80R WCI 21 BLOCK ISLAND CLOUDY 34 30 86 NE29G43 29.72S WCI 20 WESTERLY FLURRIES 35 25 66 NE20G33 29.75S WCI 24 IN MA CITY SKY/WX TMP DP RH WIND PRES REMARKS BOSTON CLOUDY 30 21 69 NE29G40 29.88R WCI 15 WORCESTER CLOUDY 23 13 65 NE17G30 29.80S WCI 9 WESTFIELD CLOUDY 31 20 63 NE14G24 29.84R WCI 21 PROVINCETOWN CLOUDY 35 26 69 NE31G43 29.81R WCI 22 NANTUCKET LGT SNOW 35 32 88 NE32G47 29.67F FOG WCI 21 $$ ANZ330-335-338-340-345-350-353-355-081200- COASTAL MARINE OBSERVATIONS STATION/POSITION TIME SKY/WX TEMP WIND PRES VSBY WAVE AIR SEA DIR/SP/G HT/PER (UTC) (F) (DEG/KT/KT) (MB) (MI) (FT/S) NY HARB ENTRANCE 0950 40 44 40/ 23/ 29 1005.3 9/ 8 4S FIRE IS NOT AVBL 20S FIRE ISLAND 0950 40 45 50/ 31/ 39 1003.2 13/ 8 GREAT SOUTH BAY NOT AVBL 23SW MTP 1050 36 45 50/ 35/ 43 1003.6 16/ 9 HUDSON CANYON 0950 42 50 999.7 16/10 KINGS POINT 1000 38 39 70/ 10/ 18 1007.0 EXECUTION ROCKS NOT AVBL CENTRAL LI SOUND 1000 39 60/ 23/ 31 N/A 4/ 5 EASTERN LI SOUND 1000 39 42 50/ 25/ 37 N/A ROBBINS REEF 1000 38 40/ 18/ 23 1006.5 $$ >>>>>>>>>>>>>>>>>>>>>>>>>>>> KEY <<<<<<<<<<<<<<<<<<<<<<<<<<< > < > SKY/WX - SKY CONDITION/PRESENT WEATHER < > TMP - TEMPERATURE IN FAHRENHEIT < > DP - DEWPOINT IN FAHRENHEIT < > RH - RELATIVE HUMIDITY IN PERCENT < > WIND - DIRECTION AND SPEED IN MPH < > PRES - MEAN SEA LEVEL PRESSURE IN INCHES OF HG < > WCI - WIND CHILL INDEX < > VSB - VISIBILITY IN MILES < > HX - HEAT INDEX < > TC - TEMPERATURE IN CELSIUS < > VRB - VARIABLE WIND DIRECTION < > < >>>>>>>>>>>>>>>>>>>>>>>>>>>> KEY <<<<<<<<<<<<<<<<<<<<<<<<<<<

USA.gov is the U.S. government's official web portal to all federal, state and local government web resources and services.